{"data":{"norad_id":53981,"intl_designator":"2022-125T","name":"STARLINK-5149","alt_names":[],"object_type":"PAYLOAD","status":"ACTIVE","operator":null,"country":"US","launch_date":"2022-10-05","launch_site_code":"AFWTR","launch_vehicle":null,"mission":null,"orbit_class":"UNKNOWN","rcs_meters":null,"size_class":null,"mass_kg":null,"dimensions":null,"purposes":["comms"],"wikipedia_slug":null,"has_3d_model":false,"image_url":null,"decayed_at":null,"tle_current":{"epoch":"2026-09-20T14:24:48.549888Z","epoch_age_seconds":78061,"freshness":"FRESH","line1":"1 53981U 22125T   26263.60056192  .00001743  00000+0  67884-4 0  9997","line2":"2 53981  53.1616  36.8649 0000662  96.7721 263.3355 15.31705201219196","mean_motion":15.31705201,"eccentricity":6.62e-5,"inclination_deg":53.1616,"raan_deg":36.8649,"arg_perigee_deg":96.7721,"mean_anomaly_deg":263.3355,"bstar":6.7884e-5,"rev_number":21919,"period_min":94.012868733479,"perigee_km":470.27109672843,"apogee_km":471.17788598988,"semimajor_km":6848.8614913592,"source":"CELESTRAK","updated_at":"2026-09-21T09:00:33.042705Z"}}}